Other Public Products
Issued by NWS Grand Forks, ND

Home | Current Version | Previous Version | Graphics & Text | Print | Product List | Glossary On
Versions: 1 2 3 4 5 6 7 8 9 10 11 12 13 14 15 16 17 18 19 20 21 22 23 24 25 26 27 28 29 30 31 32 33 34 35 36 37 38 39 40 41 42 43 44 45 46 47 48 49 50
000
FPUS83 KFGF 300531
OPUFGF
PRAIRIE TO PINES WEATHER ROUNDUP
NATIONAL WEATHER SERVICE EASTERN NORTH DAKOTA/GRAND FORKS ND
1200 AM CDT SAT MAY 30 2015

 **SATELLITE DATA USED TO AUGMENT SKY COVER AT AUTOMATED STATIONS**
 *****  WEATHER ACROSS EASTERN NORTH DAKOTA  *****

CITY           SKY/WX    TMP DP  RH WIND       PRES   REMARKS
GRAND FORKS    CLEAR     40  30  67 N12       30.32R
GRAND FORKS AF CLEAR     39  27  62 N17       30.33R
GRAND CITY NWS   N/A     36 N/A N/A N10         N/A
BUXTON           N/A     42  33  69 N14         N/A
DEVILS LAKE    CLEAR     39  25  56 NE12      30.33S
FARGO          MOCLDY    45  34  65 N17       30.27R
WAHPETON ARPT  CLOUDY    45  34  65 N16G25    30.24R
$$

 *****  WEATHER ACROSS CENTRAL AND WESTERN NORTH DAKOTA  *****

CITY           SKY/WX    TMP DP  RH WIND       PRES   REMARKS
JAMESTOWN      CLEAR     44  34  67 NE13      30.29R
BISMARCK       CLEAR     47  34  60 NW7       30.30S
MINOT          CLEAR     43  33  68 NE10      30.31R
MINOT AFB      NOT AVBL
GARRISON         N/A     43  36  76 NE5       30.30S
WILLISTON      CLEAR     47  32  56 NE6       30.29S
DICKINSON      CLEAR     41  33  73 SE6       30.28S
HETTINGER      CLEAR     39  34  82 CALM      30.30S
$$

 *****  OTHER OBSERVATIONS NORTHEAST NORTH DAKOTA  *****

CITY           SKY/WX    TMP DP  RH WIND       PRES   REMARKS
WALHALLA         N/A     37  25  60 MISG      30.38R
LANGDON        FAIR      36  27  69 NE14      30.35R
CAVALIER       FAIR      37  27  65 N10       30.37R
GRAFTON        FAIR      39  28  65 N14       30.36R
CANDO          FAIR      37  27  65 NE9       30.35S
FORT TOTTEN      N/A     40  27  60 NE7       29.95S
ROLLA          FAIR      32  32 100 NE7       30.37R
RUGBY          NOT AVBL
 ***** THE ABOVE OBSERVATIONS ARE NON NWS ARE NOT QUALITY
        CONTROLLED AND MAY MIS-REPORT RAIN FOR SNOW...
$$

 *****  OTHER OBSERVATIONS SOUTHEAST NORTH DAKOTA *****

CITY           SKY/WX    TMP DP  RH WIND       PRES   REMARKS
COOPERSTOWN    NOT AVBL
VALLEY CITY    FAIR      41  32  70 NE16G24   30.30R
OAKES            N/A     45  37  76 N15       30.27S
GWINNER        NOT AVBL
SHEYENNE NWR     N/A     45  35  69 N5        29.95S
BUFFALO        NOT AVBL
WYNDMERE         N/A     46  36  66 N14         N/A
 ***** THE ABOVE OBSERVATIONS ARE NON NWS ARE NOT QUALITY
       CONTROLLED AND MAY MIS-REPORT RAIN FOR SNOW...
$$

  *****  WEATHER ACROSS NORTHERN MINNESOTA  *****

CITY           SKY/WX    TMP DP  RH WIND       PRES   REMARKS
FLAG ISLAND    CLOUDY    43  34  70 N24G31    30.27R
WARROAD        CLEAR     37  30  75 NW13G20   30.29R
ROSEAU         CLEAR     37  30  75 N10       30.30R
HALLOCK        CLEAR     37  27  65 N10       30.35R
THF RVR FALLS  CLEAR     39  28  65 N16       30.30R
HALSTAD          N/A     42  28  59 N16         N/A
FOSSTON        PTCLDY    37  30  75 N14G21    30.27R
BAUDETTE       CLOUDY    45  32  60 N17       30.22R
WASKISH        CLOUDY    45  37  76 NW10G16   30.23R
CROOKSTON      CLEAR     39  28  65 N14G20    30.32R
$$
  *****  WEATHER ACROSS CENTRAL AND WEST MINNESOTA  *****

CITY           SKY/WX    TMP DP  RH WIND       PRES   REMARKS
BEMIDJI        CLEAR     43  34  70 N10       30.22R
PARK RAPIDS    PTCLDY    48  35  60 N14G21    30.19R
WADENA         PTCLDY    46  37  71 N12       30.18R
DETROIT LAKES  PTCLDY    43  34  70 N9G22     30.24R
MOORHEAD       MOCLDY    43  36  75 N17       30.27S
FERGUS FALLS   MOCLDY    46  36  66 N13G23    30.22S
ELBOW LAKE     FAIR      47  39  72 N14G24    30.19R
MORRIS MN      PTCLDY    46  43  87 N15       30.18R
STAPLES        PTCLDY    46  39  76 N8        30.17R
WHEATON        MOCLDY    45  37  76 NW16      30.24R
$$
  *****  WEATHER ELSEWHERE ACROSS MINNESOTA  *****

CITY           SKY/WX    TMP DP  RH WIND       PRES   REMARKS
DULUTH         CLOUDY    48  40  73 N8        30.10R
INTRNTL FALLS  CLEAR     40  33  76 NW7       30.18R
ELY            NOT AVBL
CLOQUET        CLOUDY    48  39  71 NW8       30.12R
BRAINERD       PTCLDY    49  39  68 N13       30.15R
HIBBING        CLOUDY    47  37  68 N13       30.14R
ALEXANDRIA     FAIR      49  42  77 N14       30.17R
SAINT CLOUD    PTCLDY    50  43  77 N10G20    30.11R
MINNEAPOLIS    CLOUDY    54  50  86 N14       30.06S
$$

  *****  WEATHER ACROSS SOUTH DAKOTA  *****

CITY           SKY/WX    TMP DP  RH WIND       PRES   REMARKS
SIOUX FALLS    MOCLDY    48  43  82 N17G23    30.14S
BROOKINGS      MOCLDY    46  39  76 N15G21    30.18S
WATERTOWN      PTCLDY    44  38  79 N16G24    30.19S
HURON          PTCLDY    43  39  86 N8        30.22R
SISSETON         N/A     47  39  74 N17       30.22R
ABERDEEN       MOCLDY    48  38  68 NE13      30.25R
MITCHELL       CLOUDY    50  42  74 N17       30.21S
PIERRE         PTCLDY    45  39  79 N9        30.26R
MOBRIDGE       CLEAR     41  38  89 N7        30.26R
RAPID CITY     CLEAR     41  36  82 CALM      30.30R
$$

  *****  SOME WEATHER IN NEARBY STATES *****

CITY           SKY/WX    TMP DP  RH WIND       PRES   REMARKS
GLASGOW MT     CLEAR     48  34  58 E10       30.23F
GREAT FALLS MT CLOUDY    57  47  69 SE12      30.07S
CHEYENNE WY    PTCLDY    44  42  93 CALM      30.33F
SCOTTSBLUFF NE CLOUDY    47  46  97 CALM      30.30S
OMAHA NE       CLOUDY    55  51  86 N20G29    30.06R
DES MOINES IA  LGT RAIN  64  61  90 N15       29.97R
DAVENPORT IA   CLOUDY    68  62  81 W10       29.96S
CHICAGO IL     CLOUDY    73  66  78 SW10      29.94R
EAU CLAIRE WI  LGT RAIN  58  55  90 N9        29.98R
LA CROSSE WI   CLOUDY    67  64  90 SE3       29.90S
$$

  *****  SOME NATIONAL WEATHER *****

CITY           SKY/WX    TMP DP  RH WIND       PRES   REMARKS
LA GUARDIA NY  MOCLDY    66  60  81 CALM      30.22S
RALEIGH NC     PTCLDY    71  64  78 S6        30.20F
ATLANTA GA     PTCLDY    71  60  68 CALM      30.16F
NEW ORLEANS LA MOCLDY    77  69  76 SE5       30.05S
OKLAHOMA CITY  PTCLDY    66  64  93 SW3       30.00R
ALBUQUERQUE NM PTCLDY    71  30  21 NE5       30.17R
SALT LAKE CITY MOCLDY    64  45  49 S3        30.12R
LOS ANGELES CA   N/A     57  55  94 SW5       29.93R FOG
BOISE ID       MOCLDY    74  38  27 SE9       29.95S
SEATTLE WA     MOCLDY    62  50  64 S6        29.93R
$$

*** WEATHER ACROSS MANITOBA...SASKATCHEWAN AND ONTARIO ***
                ***ONTARIO***

CITY           SKY/WX    TMP DP  RH WIND       PRES   REMARKS
GERALDTON      MOCLDY    41  39  93 N7        30.02R
THUNDER BAY    CLOUDY    54  46  76 NW7       30.03R
SIOUX LOOKOUT  CLOUDY    37  30  75 N12G18    30.19R
TORONTO        PTCLDY    63  52  67 S3        30.00F
BIG TROUT LK   LGT SNOW  30  30 100 NE9G18    30.14  WCI  22
PICKLE LAKE    NOT AVBL
DRYDEN         CLOUDY    36  32  87 N9G18     30.21R
KENORA         MOCLDY    36  27  69 N12G18    30.26R
$$
                *** MANITOBA***

CITY           SKY/WX    TMP DP  RH WIND       PRES   REMARKS
BRANDON        CLEAR     34  25  69 NE8       30.39S
DAUPHIN        CLEAR     34  28  80 W3        30.42S
ISLAND LAKE    MOCLDY    30  25  80 N12G21    30.37R WCI  21
PILOT MOUND      N/A     36  28  75 N7          N/A
THE PAS        CLEAR     28  23  80 SE2       30.43R
THOMPSON       FLURRIES  30  27  86 CALM      30.41R
WINNIPEG       CLEAR     36  23  60 N13G20    30.39R
LYNN LAKE      CLEAR     30  23  74 SE3       30.36F
CHURCHILL      CLOUDY    28  21  74 SW6       30.36F WCI  22
GILLAM         CLOUDY    28  21  74 N5        30.38S WCI  23
$$
                ***SASKATCHEWAN***

CITY           SKY/WX    TMP DP  RH WIND       PRES   REMARKS
ESTEVAN        PTCLDY    41  32  70 E8        30.33
KINDERSLEY     MOCLDY    50  25  37 E22G28    30.24S
LLOYDMINSTER   CLOUDY    48  28  46 E10       30.25F
PRINCE ALBERT  PTCLDY    43  25  49 SE10      30.35R
REGINA         PTCLDY    43  25  49 NE8       30.34S



USA.gov is the U.S. government's official web portal to all federal, state and local government web resources and services.